This is the latest recevied weather packets stored in our database for station/object KB4RFE. If no packets are shown the sender has not sent any weather packets the latest 10 day(s).
| Time | Temp. | Humidity | Pressure | Rain* | Wind** | Luminosity | Snow |
|---|---|---|---|---|---|---|---|
| 1777575032 | 23.33° C | 76% | 1011.9 hPa | 0 mm | - | 654 W/m² | - |
| 1777574727 | 23.33° C | 77% | 1011.8 hPa | 0 mm | - | 488 W/m² | - |
| 1777574425 | 23.33° C | 76% | 1012 hPa | 0 mm | - | 538 W/m² | - |
| 1777574121 | 23.33° C | 74% | 1012 hPa | 0 mm | - | 437 W/m² | - |
| 1777573816 | 23.33° C | 76% | 1012.2 hPa | 0 mm | - | 305 W/m² | - |
| 1777573506 | 23.33° C | 77% | 1012.1 hPa | 0 mm | - | 317 W/m² | - |
| 1777573202 | 23.33° C | 78% | 1012.1 hPa | 0 mm | - | 475 W/m² | - |
| 1777572899 | 22.78° C | 78% | 1012.1 hPa | 0 mm | - | 331 W/m² | - |
| 1777572595 | 23.33° C | 77% | 1012 hPa | 0 mm | - | 342 W/m² | - |
| 1777572295 | 23.33° C | 81% | 1012 hPa | 0 mm | - | 351 W/m² | - |
| 1777571991 | 23.33° C | 81% | 1012.1 hPa | 0 mm | - | 430 W/m² | - |
| 1777571691 | 23.33° C | 80% | 1012.1 hPa | 0 mm | - | 467 W/m² | - |
| 1777571389 | 23.89° C | 81% | 1012 hPa | 0 mm | - | 434 W/m² | - |
| 1777571085 | 23.33° C | 80% | 1011.9 hPa | 0 mm | - | 388 W/m² | - |
| 1777570781 | 23.33° C | 82% | 1011.8 hPa | 0 mm | - | 344 W/m² | - |
| 1777570478 | 23.33° C | 81% | 1011.8 hPa | 0 mm | - | 223 W/m² | - |
| 1777570173 | 23.89° C | 80% | 1011.8 hPa | 0 mm | - | 108 W/m² | - |
| 1777569870 | 25° C | 79% | 1011.5 hPa | 0 mm | - | 157 W/m² | - |
| 1777569566 | 25° C | 76% | 1011.7 hPa | 0 mm | - | 461 W/m² | - |
| 1777569262 | 25° C | 77% | 1011.5 hPa | 0 mm | - | 469 W/m² | - |
| 1777568959 | 24.44° C | 80% | 1011.6 hPa | 0 mm | - | 427 W/m² | - |
| 1777568655 | 24.44° C | 80% | 1011.6 hPa | 0 mm | - | 405 W/m² | - |
| 1777568353 | 24.44° C | 79% | 1011.7 hPa | 0 mm | - | 361 W/m² | - |
| 1777568050 | 23.89° C | 78% | 1011.8 hPa | 0 mm | - | 60 W/m² | - |
| 1777567746 | 23.89° C | 80% | 1011.9 hPa | 0 mm | - | 269 W/m² | - |
* Rain latest hour (hover to see other rain measurements)
** Current wind speed in m/s (hover to see current wind gust speed)